INTELSAT 33E DEB, 61990

Orbit data source: Space-Track

INTELSAT 33E DEB, 61990 is space debris in GEO originally from a launch on Wed, 24 Aug 2016 UTC launched from the French Guiana (FRGUI). Debris objects in space refer to the collection of defunct objects orbiting the Earth. Examples of debris include non-operational satellites, rocket bodies, and fragments generated from explosions, collisions, or faulty payload assembly.

Not visible in the next 10 days
Identifier
61990, 2016-053G
Orbit
GEO
Country
Flag of UnknownUnknown / ITSO
Related business
Manufacturer
Boeing/ES
Mission
Spacecraft
Bus & Motor
Unknown
Mass
Unknown
Launch date (UTC)
2016-08-24 (9 years ago)
Launch vehicle
Unknown
Launch site
French Guiana (FRGUI)
Object type
Payload
Rocket body
Debris
Shape & HBR
Unknown shape, 1.1 m
Radar Cross Section
RCS unknown

Expand to show TLE details & history
Last TLE update: 1 day ago

TLE from 1 day ago
0 INTELSAT 33E DEB
1 61990U 16053G   25288.76938890 -.00000172  00000-0  00000-0 0  9996
2 61990   0.8507  72.4886 0083886 318.9992 329.0275  1.01388305  3679
Epoch: 2025-10-15T18:27Z
TLE epoch observation values (Epoch: 2025-10-15T18:27:55.200Z)
Latitude
-0.80156°
Longitude
58.48296°
Altitude
35,174.416 km
Speed
3.108 km/s
True Right ascension
00h 00m 00s
True Declination
0° 48' 03"
Sunlit
Object was in daylight at epoch
Visualization orbit readout
Latitude
Unknown
Longitude
Unknown
Altitude
Unknown
Speed
Unknown
Apparent Right ascension
Unknown
Apparent Declination
Unknown
Sunlit
N/A
Visualization observer readout
Local Sidereal Time
15:08:01
Azimuth
Unknown
Elevation
Unknown
Doppler factor
Unknown
Orbital elements
Apogee altitude
35,828.658 km
Perigee altitude
35,126.437 km
Semi-major axis
41,855.684 km
Eccentricity
0.00839
Inclination
0.8507°
RAAN
72.4886°
Arg. of periapsis
318.9992°
True anomaly
328.52833°
Mean anomaly
329.0275°
Eccentric anomaly
328.77836°
Mean motion
0.25346 °/min
Orbital period
1,420.34 mins
BSTAR
0
Loading maneuver chart data...
Computing Atmospheric mass density...
Loading historical data...
Loading historical data...
Loading historical data...
Loading historical data...
Loading historical data...
Loading historical data...
Loading historical data...

Documentation

Showing up to 5 results
|